フルーエリング彗星

C/2019 D1 ( Flewelling )

English version
Home page
Updated on May 23, 2019

---------------------------------------------------------------------

・ プロフィール

発見日 2019年2月26日
発見光度 16.7等
発見者 Heather Flewelling (Asteroid Terrestrial-Impact Last Alert System (ATLAS) search program)

・ 写真集

・ 軌道要素

Epoch 2019 Apr. 27.0 TT = JDT 2458600.5
T 2019 May 11.84633 TT                                  MPCW
q   1.5774768            (2000.0)            P               Q
z  +0.0074301      Peri.   70.47986     +0.40562002     +0.80114177
 +/-0.0000770      Node   231.71583     -0.89447588     +0.44698771
e   0.9882792      Incl.   34.09807     +0.18810982     +0.39796212
From 227 observations 2019 Feb. 26-May 13, mean residual 0".6.

・ 星図

・ 光度変化

        m1 = 12.0 + 5 logΔ + 10.0 log r

---------------------------------------------------------------------

軌道要素はM.P.E.C. 2019-J142に掲載されたものです。
星図はステラナビゲータ Ver.10 (アストロアーツ) で作成したものです。
光度グラフはComet for Windowsで作成したものです。

---------------------------------------------------------------------

Copyright(C) Seiichi Yoshida (comet@aerith.net). All rights reserved.